Change the Weather History Date:

Thursday, October 4, 2012

  Actual Average Record
Temperature  
Mean Temperature 42 °F -  
Max Temperature 49 °F 67 °F 87 °F (1997)
Min Temperature 34 °F 39 °F 26 °F (2013)
Degree Days  
Heating Degree Days 23    
Month to date heating degree days 39  
Moisture  
Dew Point 26 °F    
Average Humidity 56    
Maximum Humidity 70    
Minimum Humidity 42    
Precipitation  
Precipitation 0.00 in - - ()
Month to date precipitation 0.04  
Year to date precipitation 12.83  
Sea Level Pressure  
Sea Level Pressure 30.28 in    
Wind  
Wind Speed 5 mph (NE)    
Max Wind Speed 15 mph    
Max Gust Speed 18 mph    
Visibility 10 miles    
Events      
Averages and records for this station are not official NWS values.
T = Trace of Precipitation, MM = Missing Value Source: NWS Daily Summary

Daily Weather History Graph

Daily Weather History Graph

Search for Another Location

Airport or City:

Trip Planner

Search our weather history database for the weather conditions in past years. The results will help you decide how hot, cold, wet, or windy it might be!

Date:

Astronomy

Oct. 04, 2012 Rise Set
Actual Time 6:58 AM MDT 6:36 PM MDT
Civil Twilight 6:32 AM MDT 7:03 PM MDT
Nautical Twilight 6:00 AM MDT 7:34 PM MDT
Astronomical Twilight 5:29 AM MDT 8:05 PM MDT
Moon 9:14 PM MDT (10/4) 11:17 AM MDT (10/4)
Length of Visible Light 12h 30m
Length of Day
11h 37m
Waning Gibbous, 81% of the Moon is Illuminated
Oct 4
Waning Gibbous
Oct 8
Last Quarter
Oct 15
New
Oct 21
First Quarter
Oct 29
Full

Hourly Weather History & Observations

Time (MDT) Temp. Windchill Dew Point Humidity Pressure Visibility Wind Dir Wind Speed Gust Speed Precip Events Conditions
12:53 AM 37.0 °F - 26.1 °F 65% 30.26 in 10.0 mi Calm Calm - N/A   Overcast
1:53 AM 35.1 °F 29.3 °F 26.1 °F 70% 30.26 in 10.0 mi East 6.9 mph - N/A   Overcast
2:53 AM 35.1 °F 30.1 °F 26.1 °F 70% 30.25 in 10.0 mi ESE 5.8 mph - N/A   Mostly Cloudy
3:53 AM 34.0 °F 27.2 °F 25.0 °F 70% 30.25 in 10.0 mi East 8.1 mph - N/A   Overcast
4:53 AM 34.0 °F 28.8 °F 24.1 °F 67% 30.25 in 10.0 mi East 5.8 mph - N/A   Mostly Cloudy
5:53 AM 34.0 °F 29.8 °F 25.0 °F 70% 30.29 in 10.0 mi ESE 4.6 mph - N/A   Overcast
6:53 AM 34.0 °F - 25.0 °F 70% 30.35 in 10.0 mi Calm Calm - N/A   Mostly Cloudy
7:53 AM 34.0 °F 31.0 °F 25.0 °F 70% 30.36 in 10.0 mi SE 3.5 mph - N/A   Overcast
8:53 AM 35.1 °F 31.0 °F 25.0 °F 67% 30.37 in 10.0 mi East 4.6 mph - N/A   Overcast
9:53 AM 37.0 °F 32.4 °F 24.1 °F 59% 30.37 in 10.0 mi ESE 5.8 mph - N/A   Mostly Cloudy
10:53 AM 39.9 °F 35.8 °F 24.1 °F 53% 30.35 in 10.0 mi East 5.8 mph 18.4 mph N/A   Mostly Cloudy
11:53 AM 44.1 °F 39.0 °F 25.0 °F 47% 30.32 in 10.0 mi East 9.2 mph - N/A   Scattered Clouds
12:53 PM 46.9 °F - 27.0 °F 46% 30.28 in 10.0 mi NNE 9.2 mph - N/A   Scattered Clouds
1:53 PM 48.0 °F - 27.0 °F 44% 30.25 in 10.0 mi NE 6.9 mph - N/A   Mostly Cloudy
2:53 PM 48.0 °F - 27.0 °F 44% 30.23 in 10.0 mi NNE 9.2 mph - N/A   Mostly Cloudy
3:53 PM 46.9 °F - 26.1 °F 44% 30.24 in 10.0 mi NNE 8.1 mph - N/A   Mostly Cloudy
4:53 PM 48.0 °F - 27.0 °F 44% 30.23 in 10.0 mi North 9.2 mph - N/A   Mostly Cloudy
5:53 PM 46.0 °F 43.9 °F 26.1 °F 46% 30.25 in 10.0 mi NE 4.6 mph - N/A   Mostly Cloudy
6:53 PM 43.0 °F 39.5 °F 25.0 °F 49% 30.27 in 10.0 mi NNE 5.8 mph - N/A   Mostly Cloudy
7:53 PM 42.1 °F 39.2 °F 25.0 °F 51% 30.27 in 10.0 mi NNE 4.6 mph - N/A   Scattered Clouds
8:53 PM 39.0 °F 34.8 °F 27.0 °F 62% 30.27 in 10.0 mi NNW 5.8 mph - N/A   Mostly Cloudy
9:53 PM 37.9 °F 32.1 °F 27.0 °F 65% 30.26 in 10.0 mi NNW 8.1 mph - N/A   Mostly Cloudy
10:53 PM 37.0 °F 31.6 °F 26.1 °F 65% 30.25 in 10.0 mi NNW 6.9 mph - N/A   Mostly Cloudy
11:53 PM 37.0 °F 34.5 °F 27.0 °F 67% 30.23 in 10.0 mi WNW 3.5 mph - N/A   Mostly Cloudy